Weather History for Perry, IA

Change the Weather History Date:

Thursday, January 17, 2013

  Actual Average Record
Temperature  
Mean Temperature 25 °F -  
Max Temperature 36 °F 27 °F 60 °F (1990)
Min Temperature 14 °F 7 °F -18 °F (1977)
Degree Days  
Heating Degree Days 40    
Moisture  
Dew Point 18 °F    
Average Humidity 76    
Maximum Humidity 95    
Minimum Humidity 52    
Precipitation  
Precipitation 0.00 in - - ()
Sea Level Pressure  
Sea Level Pressure 30.37 in    
Wind  
Wind Speed 7 mph (WNW)    
Max Wind Speed 14 mph    
Max Gust Speed -    
Visibility 10 miles    
Events      
Averages and records for this station are not official NWS values.
T = Trace of Precipitation, MM = Missing Value Source: NWS Daily Summary

Daily Weather History Graph

Daily Weather History Graph

Search for Another Location

Airport:

Trip Planner

Search our weather history database for the weather conditions in past years. The results will help you decide how hot, cold, wet, or windy it might be!

Date:

Astronomy

Jan. 17, 2013 Rise Set
Actual Time 7:40 AM CST 5:13 PM CST
Civil Twilight 7:09 AM CST 5:44 PM CST
Nautical Twilight 6:35 AM CST 6:18 PM CST
Astronomical Twilight 6:02 AM CST 6:51 PM CST
Moon 10:41 AM CST (1/17) No Moon Set
Length of Visible Light 10h 34m
Length of Day
9h 33m
Waxing Crescent, 38% of the Moon is Illuminated
Jan 17
Waxing Crescent
Jan 18
First Quarter
Jan 26
Full
Feb 3
Last Quarter
Feb 10
New

Hourly Weather History & Observations

Time (CST) Temp. Windchill Dew Point Humidity Pressure Visibility Wind Dir Wind Speed Gust Speed Precip Events Conditions
12:15 AM 27.3 °F 16.6 °F 24.4 °F 89% 30.22 in 10.0 mi North 12.7 mph - N/A   Clear
12:35 AM 26.4 °F 15.0 °F 23.2 °F 88% 30.22 in 10.0 mi North 13.8 mph - N/A   Clear
12:55 AM 25.7 °F 15.7 °F 23.0 °F 89% 30.23 in 10.0 mi North 10.4 mph - N/A   Clear
1:15 AM 25.2 °F 15.1 °F 21.7 °F 87% 30.25 in 10.0 mi NNW 10.4 mph - N/A   Clear
1:35 AM 24.6 °F 15.1 °F 21.2 °F 87% 30.27 in 10.0 mi NNW 9.2 mph - N/A   Clear
1:55 AM 23.9 °F 12.9 °F 19.9 °F 85% 30.27 in 10.0 mi North 11.5 mph - N/A   Clear
2:15 AM 23.2 °F 12.0 °F 18.0 °F 80% 30.28 in 10.0 mi North 11.5 mph - N/A   Clear
2:35 AM 22.6 °F 11.9 °F 18.7 °F 85% 30.29 in 10.0 mi North 10.4 mph - N/A   Clear
3:35 AM 20.8 °F 12.1 °F 16.2 °F 82% 30.31 in 10.0 mi NNW 6.9 mph - N/A   Clear
3:55 AM 19.9 °F 13.4 °F 13.5 °F 76% 30.29 in 10.0 mi North 4.6 mph - N/A   Clear
4:15 AM 19.4 °F 8.6 °F 13.3 °F 77% 30.32 in 10.0 mi NNW 9.2 mph - N/A   Clear
4:35 AM 18.9 °F 5.3 °F 10.9 °F 71% 30.34 in 10.0 mi North 13.8 mph - N/A   Clear
4:55 AM 18.5 °F 6.1 °F 13.1 °F 79% 30.36 in 10.0 mi NNW 11.5 mph - N/A   Clear
5:15 AM 17.6 °F 5.7 °F 12.2 °F 79% 30.37 in 10.0 mi NNW 10.4 mph - N/A   Clear
5:35 AM 17.2 °F 8.9 °F 11.8 °F 79% 30.37 in 10.0 mi NNW 5.8 mph - N/A   Clear
6:15 AM 16.5 °F 6.9 °F 11.3 °F 80% 30.38 in 10.0 mi NNW 6.9 mph - N/A   Clear
6:35 AM 15.8 °F 7.2 °F 11.1 °F 82% 30.38 in 10.0 mi NNW 5.8 mph - N/A   Clear
6:55 AM 15.3 °F 5.4 °F 9.9 °F 79% 30.39 in 10.0 mi NNW 6.9 mph - N/A   Clear
7:15 AM 14.9 °F 7.5 °F 10.0 °F 81% 30.40 in 10.0 mi NNW 4.6 mph - N/A   Scattered Clouds
7:35 AM 15.4 °F 8.1 °F 9.9 °F 79% 30.39 in 10.0 mi NW 4.6 mph - N/A   Mostly Cloudy
7:55 AM 15.6 °F 10.0 °F 9.7 °F 77% 30.41 in 10.0 mi NW 3.5 mph - N/A   Overcast
8:15 AM 15.6 °F 8.3 °F 9.7 °F 77% 30.42 in 10.0 mi WNW 4.6 mph - N/A   Mostly Cloudy
8:35 AM 15.8 °F 8.6 °F 9.3 °F 76% 30.43 in 10.0 mi NNW 4.6 mph - N/A   Mostly Cloudy
8:55 AM 16.5 °F 9.4 °F 9.1 °F 73% 30.44 in 10.0 mi NW 4.6 mph - N/A   Mostly Cloudy
9:15 AM 17.2 °F - 9.0 °F 70% 30.44 in 10.0 mi Calm Calm - N/A   Overcast
9:35 AM 17.8 °F 12.5 °F 9.3 °F 69% 30.45 in 10.0 mi WNW 3.5 mph - N/A   Overcast
9:55 AM 18.7 °F 10.6 °F 9.1 °F 66% 30.45 in 10.0 mi West 5.8 mph - N/A   Overcast
10:15 AM 19.8 °F 13.2 °F 9.9 °F 65% 30.45 in 10.0 mi West 4.6 mph - N/A   Overcast
10:35 AM 20.3 °F 12.5 °F 10.6 °F 66% 30.46 in 10.0 mi West 5.8 mph - N/A   Overcast
10:55 AM 21.6 °F 14.0 °F 11.8 °F 66% 30.45 in 10.0 mi WSW 5.8 mph - N/A   Overcast
11:15 AM 22.5 °F 16.3 °F 12.6 °F 66% 30.45 in 10.0 mi WNW 4.6 mph - N/A   Overcast
11:35 AM 23.7 °F 19.3 °F 11.5 °F 60% 30.44 in 10.0 mi West 3.5 mph - N/A   Overcast
11:55 AM 25.5 °F - 11.5 °F 55% 30.44 in 10.0 mi Calm Calm - N/A   Mostly Cloudy
12:15 PM 26.1 °F - 10.8 °F 52% 30.41 in 10.0 mi Calm Calm - N/A   Mostly Cloudy
12:55 PM 28.6 °F 23.5 °F 13.6 °F 54% 30.41 in 10.0 mi West 4.6 mph - N/A   Clear
1:15 PM 29.5 °F 24.5 °F 14.7 °F 54% 30.39 in 10.0 mi West 4.6 mph - N/A   Clear
1:35 PM 30.6 °F 24.7 °F 16.2 °F 55% 30.39 in 10.0 mi WSW 5.8 mph - N/A   Clear
1:55 PM 31.3 °F 27.9 °F 17.4 °F 57% 30.39 in 10.0 mi West 3.5 mph - N/A   Clear
2:15 PM 32.4 °F 26.9 °F 18.9 °F 58% 30.38 in 10.0 mi West 5.8 mph - N/A   Clear
2:35 PM 33.8 °F 29.6 °F 20.7 °F 59% 30.38 in 10.0 mi West 4.6 mph - N/A   Clear
2:55 PM 34.7 °F 30.6 °F 21.6 °F 59% 30.38 in 10.0 mi West 4.6 mph - N/A   Clear
3:15 PM 35.8 °F 33.0 °F 23.2 °F 60% 30.38 in 10.0 mi SW 3.5 mph - N/A   Clear
3:35 PM 35.8 °F 31.9 °F 23.4 °F 61% 30.37 in 10.0 mi SSW 4.6 mph - N/A   Clear
3:55 PM 36.5 °F 33.9 °F 24.4 °F 62% 30.37 in 10.0 mi SW 3.5 mph - N/A   Clear
4:15 PM 36.0 °F 31.1 °F 24.6 °F 63% 30.38 in 10.0 mi South 5.8 mph - N/A   Clear
4:35 PM 34.3 °F 29.2 °F 25.5 °F 70% 30.38 in 10.0 mi South 5.8 mph - N/A   Clear
4:55 PM 33.1 °F 27.7 °F 25.9 °F 75% 30.38 in 10.0 mi South 5.8 mph - N/A   Clear
5:35 PM 30.4 °F 25.6 °F 24.8 °F 80% 30.38 in 10.0 mi South 4.6 mph - N/A   Clear
6:15 PM 29.8 °F 23.9 °F 25.0 °F 82% 30.37 in 10.0 mi SSW 5.8 mph - N/A   Clear
6:55 PM 29.1 °F 24.1 °F 26.6 °F 90% 30.38 in 10.0 mi SSW 4.6 mph - N/A   Clear
7:35 PM 28.2 °F - 26.1 °F 92% 30.37 in 10.0 mi Calm Calm - N/A   Clear
7:55 PM 28.4 °F - 25.7 °F 90% 30.37 in 10.0 mi Calm Calm - N/A   Clear
8:15 PM 29.1 °F - 25.9 °F 88% 30.37 in 10.0 mi Calm Calm - N/A   Clear
8:35 PM 26.8 °F - 25.2 °F 94% 30.36 in 10.0 mi Calm Calm - N/A   Clear
8:55 PM 27.1 °F - 24.6 °F 90% 30.36 in 10.0 mi Calm Calm - N/A   Clear
9:15 PM 26.8 °F - 24.6 °F 92% 30.36 in 10.0 mi Calm Calm - N/A   Clear
9:35 PM 25.0 °F 20.7 °F 22.8 °F 91% 30.36 in 10.0 mi ESE 3.5 mph - N/A   Clear
9:55 PM 25.2 °F - 23.5 °F 94% 30.36 in 10.0 mi Calm Calm - N/A   Clear
11:15 PM 23.4 °F 17.4 °F 21.9 °F 94% 30.33 in 10.0 mi SE 4.6 mph - N/A   Clear
11:35 PM 23.7 °F 16.6 °F 22.5 °F 95% 30.32 in 10.0 mi SE 5.8 mph - N/A   Clear
11:55 PM 22.8 °F 14.5 °F 21.4 °F 94% 30.31 in 10.0 mi SSE 6.9 mph - N/A   Clear